User: anonymous   Login
Location: Unspecified
(0.0000°N, 0.0000°E)
Time: 18:19:05
(UTC+00:00)
Language:

AAC-AIS-SAT2 - Orbit

View from above orbital plane
View from above orbital plane
View from above satellite
View from above satellite

Ground track
Ground track

The orbit is defined by the following mean orbital elements,

1 56996U          26145.52860198 +.00000000 +00000-0 +41988-3 0 00008
2 56996  98.1451 284.9065 0057471 170.4121 189.8204 14.85335684    08
Epoch (UTC): 25 May 2026 12:41:11
Eccentricity: 0.0057471
inclination: 98.1451°
perigee height: 572 km
apogee height: 653 km
right ascension of ascending node: 284.9065°
argument of perigee: 170.4121°
revolutions per day: 14.85335684
mean anomaly at epoch: 189.8204°

The dashed part of the orbit path shows where the satellite is in the earth's shadow,  

DLR